Satellite-Ground Cal/Val Region Overpasses Predictions

Prediction of Satellite NPP Overpassing Cal/Val Region: PacNW

Region Location: (Latitude: 10.00, Longitude: 139.50) to (Latitude: 22.70, Longitude: 165.60).

Table of predicted overpasses for the next 14.0 days since TLE Epoch: 11/5/2014
Interval Starting Time Starting Location Ending Time Ending Location
1 11/05/2014 14:38:24 ( 11.78, 165.59) 11/05/2014 14:38:54 ( 10.02, 165.19)
2 11/05/2014 16:16:48 ( 22.70, 142.82) 11/05/2014 16:20:24 ( 10.02, 139.81)
3 11/06/2014 03:25:54 ( 10.05, 150.35) 11/06/2014 03:29:29 ( 22.67, 147.35)
4 11/06/2014 15:57:47 ( 22.67, 147.57) 11/06/2014 16:01:22 ( 10.05, 144.58)
5 11/07/2014 03:06:52 ( 10.02, 155.11) 11/07/2014 03:10:27 ( 22.64, 152.11)
6 11/07/2014 15:38:44 ( 22.70, 152.34) 11/07/2014 15:42:20 ( 10.02, 149.32)
7 11/08/2014 02:47:50 ( 10.05, 159.86) 11/08/2014 02:51:25 ( 22.67, 156.86)
8 11/08/2014 15:19:43 ( 22.66, 157.08) 11/08/2014 15:23:18 ( 10.04, 154.09)
9 11/09/2014 02:28:48 ( 10.02, 164.62) 11/09/2014 02:32:23 ( 22.65, 161.62)
10 11/09/2014 15:00:40 ( 22.69, 161.85) 11/09/2014 15:04:16 ( 10.01, 158.84)
11 11/10/2014 03:51:15 ( 10.00, 144.01) 11/10/2014 03:54:51 ( 22.69, 141.00)
12 11/10/2014 14:42:49 ( 18.55, 165.59) 11/10/2014 14:45:14 ( 10.04, 163.60)
13 11/10/2014 16:23:09 ( 22.65, 141.22) 11/10/2014 16:25:10 ( 15.55, 139.50)
14 11/11/2014 03:32:14 ( 10.04, 148.76) 11/11/2014 03:35:49 ( 22.66, 145.76)
15 11/11/2014 16:04:06 ( 22.68, 145.98) 11/11/2014 16:07:41 ( 10.06, 142.98)
16 11/12/2014 03:13:11 ( 10.02, 153.52) 11/12/2014 03:16:47 ( 22.70, 150.51)
17 11/12/2014 15:45:05 ( 22.64, 150.73) 11/12/2014 15:48:40 ( 10.02, 147.73)
18 11/13/2014 02:54:10 ( 10.05, 158.27) 11/13/2014 02:57:45 ( 22.68, 155.27)
19 11/13/2014 15:26:02 ( 22.66, 155.49) 11/13/2014 15:29:37 ( 10.04, 152.49)
20 11/14/2014 02:35:07 ( 10.03, 163.03) 11/14/2014 02:38:42 ( 22.65, 160.03)
21 11/14/2014 15:07:00 ( 22.69, 160.25) 11/14/2014 15:10:36 ( 10.01, 157.24)
22 11/15/2014 02:18:45 ( 19.41, 165.59) 11/15/2014 02:19:41 ( 22.69, 164.78)
23
